Regional Weather Roundup
Issued by NWS

Home | Current Version | Previous Version | Text Only | Print | Product List | Glossary On
Versions: 1 2 3 4 5 6 7 8 9 10 11 12 13 14 15 16 17 18 19 20 21 22 23 24 25 26 27 28 29 30 31 32 33 34 35 36 37 38 39 40 41 42 43 44 45 46 47 48 49 50
365
ASUS44 KJAN 291010
RWRMS

MISSISSIPPI HOURLY WEATHER ROUNDUP
NATIONAL WEATHER SERVICE JACKSON MS
500 AM CDT THU JUN 29 2017

NOTE: "FAIR: INDICATES FEW OR NO CLOUDS BELOW 12,000 FEET WITH NO
SIGNIFICANT WEATHER AND/OR OBSTRUCTIONS TO VISIBILITY.

MSZ001>002-007>008-010>013-018>021-025>028-034>036-291100-
NORTHWEST MISSISSIPPI

CITY           SKY/WX    TMP DP  RH WIND       PRES   REMARKS
BATESVILLE     FAIR      69  67  94 CALM      30.01F FOG
CLARKSDALE       N/A     72  72 100 SE6       29.99S
CLEVELAND      CLOUDY    73  73 100 S6        29.99S
GREENWOOD      CLOUDY    74  71  91 S6        30.00R
GREENVILLE     CLOUDY    73  71  93 SE3       29.98S
OXFORD         FAIR      68  66  94 SE6       30.04S
TUNICA           N/A     70  68  94 S6        30.00S
WINONA         CLOUDY    71  71  99 CALM      30.01S
$$

MSZ003>006-009-014>017-022>024-029>033-037>039-291100-
NORTHEAST MISSISSIPPI

CITY           SKY/WX    TMP DP  RH WIND       PRES   REMARKS
COLUMBUS AFB   PTCLDY    73  73 100 SE7       30.03R
CORINTH        FAIR      70  66  88 SE5       30.04R
GOLDN TRIANGLE CLOUDY    73  66  78 SE7       30.00R
STARKVILLE     CLOUDY    72  70  94 SE3       30.04R
TUPELO         CLOUDY    72  68  87 SE6       30.03S
$$

MSZ040-058-291100-
CENTRAL MISSISSIPPI

CITY           SKY/WX    TMP DP  RH WIND       PRES   REMARKS
JACKSON INTL   CLOUDY    73  70  90 SE5       29.99S
JACKSON HAWKNS CLOUDY    73  70  90 E8        29.99S
MADISON        FAIR      72  70  94 E3        30.00R
MERIDIAN KEY   CLOUDY    75  73  93 CALM      30.03R
MERIDIAN NAS   CLOUDY    74  70  87 CALM      30.04R
RAYMOND        FAIR      73  72  94 E5        29.98R
VICKSBURG VKS  SUNNY     73  70  88 CALM      29.95R
$$

MSZ059>079-291100-
SOUTH MISSISSIPPI

CITY           SKY/WX    TMP DP  RH WIND       PRES   REMARKS
COLUMBIA       DRIZZLE   73  72  94 S12G20    30.02R
HATTIESBURG    LGT RAIN  73  72  96 SE3       30.01R
LAUREL         CLOUDY    73  73 100 E3        30.02R
MCCOMB         LGT RAIN  74  71  91 SE12G17   29.98R
NATCHEZ        PTCLDY    72  71  97 SE3       29.97R
PINE BELT      CLOUDY    72  70  94 E5        30.03R
$$

MSZ080>082-291100-
COASTAL MISSISSIPPI

CITY           SKY/WX    TMP DP  RH WIND       PRES   REMARKS
BILOXI         LGT RAIN  77  73  88 S15G24    30.00R
PASCAGOULA     LGT RAIN  75  73  93 S7        30.01R FOG
GULFPORT       CLOUDY    78  76  93 S12       29.99R
$$

LAZ007>009-015>016-023>026-291100-
NORTHEAST LOUISIANA

CITY           SKY/WX    TMP DP  RH WIND       PRES   REMARKS
BASTROP        CLOUDY    72  72  99 CALM      29.98R
TALLULAH/VBURG CLOUDY    74  70  87 SE7       29.98R
VIDALIA        PTSUNNY   73  72  95 SE6       29.95R
$$




USA.gov is the U.S. government's official web portal to all federal, state and local government web resources and services.